[[{"header":{"parameterUnit":"m.s-1","parameterCategory":1,"la1":30.2991,"la2":30.254,"lo1":-89.0895,"lo2":-89.0444,"dy":0.0017,"dx":0.0017,"nx":28,"ny":28,"refTime":"2023-08-03T03:00:00:Z","depth":0,"parameterNumber":2,"parameterNumberName":"U-component_of_WINDS"},"data":[0,0,0,0,0,0,0,0,0,0,0,0,0,0,0,0,0,0,0,0,0,0,0,0,0,0,0,0,0,0,0,0,0,0,0,0,0,0,0,0,0,0,0,0,0,0,0,0,0,0,0,0,0,0,0,0,0,0,-0.3661,-0.3659,0,-0.3531,-0.353,-0.3529,-0.3456,-0.3456,-0.3456,-0.3456,-0.3321,-0.3318,-0.3315,0,0,0,0,0,0,0,0,0,0,0,0,0,-0.3845,-0.3842,-0.3661,-0.3659,-0.3658,-0.3532,-0.353,-0.3528,-0.3456,-0.3456,-0.3456,-0.3456,-0.3322,-0.3319,-0.3314,0,0,0,0,0,0,0,0,0,0,0,0,0,-0.3745,-0.3841,-0.3661,-0.3607,-0.36,-0.3532,-0.353,-0.3528,-0.3456,-0.3456,-0.3456,-0.3455,-0.3324,-0.3319,-0.3314,-0.3289,0,0,-0.3298,-0.3296,0,0,0,0,0,0,0,0,-0.3751,-0.3739,-0.3616,-0.361,-0.3603,-0.351,-0.3546,-0.3448,-0.3456,-0.3511,-0.3456,-0.3455,-0.3384,-0.3374,-0.3351,-0.3283,-0.3277,-0.3298,-0.3295,-0.3293,-0.3291,0,0,0,0,0,0,0,-0.3758,-0.3744,-0.3609,-0.3615,-0.3607,-0.3588,-0.3574,-0.3527,-0.3451,-0.3506,-0.3501,-0.3486,-0.3381,-0.3356,-0.3347,-0.3275,-0.3298,-0.3294,-0.3291,-0.3289,-0.3182,-0.3183,0,0,0,0,0,0,-0.3774,-0.375,-0.3614,-0.3606,-0.3678,-0.3585,-0.3569,-0.354,-0.3451,-0.3437,-0.3487,-0.3484,-0.3364,-0.3353,-0.3342,-0.3308,-0.3293,-0.3288,-0.3285,-0.3182,-0.3182,-0.3183,0,0,0,0,0,0,-0.3778,-0.3762,-0.3619,-0.3676,-0.3657,-0.3583,-0.355,-0.3538,-0.3513,-0.3437,-0.3423,-0.3475,-0.3364,-0.3349,-0.3303,-0.3302,-0.3286,-0.3281,-0.3182,-0.3182,-0.3183,-0.324,0,0,0,0,0,0,-0.3784,-0.3764,-0.3754,-0.3677,-0.3654,-0.3583,-0.355,-0.3535,-0.3504,-0.3499,-0.3422,-0.3409,-0.3362,-0.3311,-0.3298,-0.3295,-0.3277,-0.3182,-0.3182,-0.3182,-0.3237,-0.3242,-0.3246,0,0,0,0,0,-0.379,-0.3774,-0.3754,-0.3738,-0.364,-0.3583,-0.357,-0.3517,-0.3505,-0.3494,-0.3445,-0.3412,-0.3305,-0.3307,-0.3292,-0.3287,-0.3181,-0.3182,-0.3182,-0.3236,-0.3241,-0.3245,0,0,0,0,0,0,-0.3853,-0.3763,-0.3739,-0.3698,-0.3649,-0.3571,-0.3555,-0.3524,-0.3476,-0.3473,-0.3409,-0.3392,-0.3353,-0.3315,-0.332,-0.3259,-0.324,-0.3237,-0.3285,-0.329,-0.3294,-0.3303,-0.3273,0,0,0,0,0,-0.3862,-0.3823,-0.3747,-0.3718,-0.3695,-0.363,-0.3603,-0.3567,-0.3513,-0.3491,-0.3439,-0.3388,-0.3343,-0.3314,-0.3268,-0.3232,-0.3215,-0.3221,-0.3226,-0.3229,-0.3228,-0.3207,-0.3209,-0.3184,-0.3184,-0.3184,0,0,-0.388,-0.3826,-0.3805,-0.3729,-0.3687,-0.3648,-0.3612,-0.3573,-0.3544,-0.3485,-0.3439,-0.3399,-0.3338,-0.3297,-0.3277,-0.3265,-0.3231,-0.323,-0.3233,-0.3229,-0.3208,-0.321,-0.3212,-0.3185,-0.3185,-0.3185,0,0,-0.3893,-0.3848,-0.382,-0.3778,-0.3715,-0.3672,-0.3666,-0.3593,-0.3565,-0.3518,-0.3473,-0.3438,-0.3361,-0.332,-0.3288,-0.3289,-0.3256,-0.3276,-0.3296,-0.3277,-0.3279,-0.328,-0.3281,-0.3282,-0.3274,-0.3274,-0.3275,0,-0.3923,-0.3863,-0.3809,-0.3772,-0.3741,-0.3687,-0.3658,-0.362,-0.3545,-0.3524,-0.3512,-0.3416,-0.3371,-0.332,-0.3321,-0.3297,-0.3288,-0.3283,-0.3283,-0.3284,-0.3285,-0.3285,-0.3285,-0.3277,-0.3277,-0.3277,-0.3276,0,-0.3904,-0.3864,-0.3848,-0.3778,-0.3745,-0.3712,-0.3653,-0.3625,-0.3593,-0.3552,-0.3506,-0.345,-0.3392,-0.3378,-0.3345,-0.3323,-0.3318,-0.3296,-0.3274,-0.3291,-0.329,-0.3289,-0.3281,-0.328,-0.3279,-0.3279,0,0,-0.3951,-0.3853,-0.3848,-0.3816,-0.3743,-0.3711,-0.3677,-0.3622,-0.36,-0.3551,-0.352,-0.3458,-0.3438,-0.3403,-0.3365,-0.3348,-0.3353,-0.3327,-0.3325,-0.3334,-0.3327,-0.3344,-0.3345,-0.3331,-0.3331,-0.3331,-0.3332,0,-0.3954,-0.3889,-0.384,-0.3795,-0.3758,-0.3707,-0.3677,-0.363,-0.3591,-0.3554,-0.351,-0.3468,-0.3443,-0.3422,-0.3403,-0.3356,-0.335,-0.3356,-0.3303,-0.3301,-0.332,-0.3344,-0.3362,-0.3365,-0.3331,-0.3331,-0.3331,0,-0.3948,-0.3902,-0.3853,-0.3786,-0.3768,-0.3742,-0.3689,-0.3654,-0.3599,-0.3572,-0.3535,-0.3496,-0.3458,-0.3441,-0.3388,-0.3393,-0.3369,-0.3343,-0.3342,-0.3334,-0.3317,-0.3338,-0.3365,-0.3366,-0.3329,-0.333,-0.333,0,-0.3988,-0.3913,-0.3875,-0.3849,-0.3769,-0.3753,-0.3719,-0.3664,-0.3635,-0.3588,-0.3568,-0.3518,-0.349,-0.3452,-0.3401,-0.3394,-0.3354,-0.3333,-0.333,-0.3332,-0.3324,-0.3325,-0.3348,-0.3308,-0.3308,-0.3308,-0.3308,0,-0.3996,-0.3968,-0.3892,-0.3868,-0.3836,-0.378,-0.375,-0.3712,-0.3664,-0.3632,-0.3585,-0.3557,-0.3491,-0.3455,-0.3415,-0.3378,-0.3365,-0.3342,-0.3332,-0.3347,-0.335,-0.3329,-0.3328,-0.3308,-0.3308,-0.3308,-0.3308,0,-0.4034,-0.3982,-0.3937,-0.3866,-0.3848,-0.3827,-0.3767,-0.3742,-0.3702,-0.3662,-0.365,-0.3586,-0.3541,-0.3487,-0.3423,-0.3397,-0.3363,-0.3348,-0.3382,-0.3376,-0.3377,-0.3378,-0.3388,-0.3387,-0.3349,-0.3349,-0.335,0,-0.4043,-0.4021,-0.3948,-0.3924,-0.3892,-0.3853,-0.3823,-0.3768,-0.3739,-0.3677,-0.366,-0.3612,-0.357,-0.35,-0.3448,-0.34,-0.3383,-0.339,-0.3375,-0.3391,-0.3384,-0.3386,-0.3384,-0.3394,-0.3394,-0.3395,-0.3395,0,-0.4064,-0.404,-0.3999,-0.395,-0.3916,-0.3874,-0.3831,-0.3814,-0.3749,-0.372,-0.3673,-0.3641,-0.3578,-0.3531,-0.3477,-0.3441,-0.3408,-0.3401,-0.3398,-0.3412,-0.3433,-0.3422,-0.3393,-0.34,-0.34,-0.3399,-0.3399,-0.3399,-0.4088,-0.4066,-0.4012,-0.3969,-0.3931,-0.3892,-0.3866,-0.3822,-0.3783,-0.3728,-0.3698,-0.3653,-0.36,-0.3524,-0.3491,-0.3455,-0.3443,-0.3438,-0.3437,-0.3437,-0.3442,-0.3439,-0.3444,-0.3444,-0.3444,-0.3444,-0.3444,0,-0.4107,-0.407,-0.4031,-0.3972,-0.3938,-0.3911,-0.3862,-0.3835,-0.3796,-0.3751,-0.3711,-0.3659,-0.3614,-0.3559,-0.351,-0.3492,-0.3476,-0.3481,-0.3482,-0.3474,-0.3455,-0.3462,-0.3495,-0.3495,-0.3495,-0.3495,-0.3495,-0.3495,-0.4113,-0.4075,-0.4045,-0.3989,-0.3952,-0.3908,-0.3882,-0.3846,-0.381,-0.3754,-0.3716,-0.3681,-0.3632,-0.358,-0.3537,-0.3522,-0.3506,-0.3517,-0.3497,-0.348,-0.3475,-0.3471,-0.3478,-0.3514,-0.3514,-0.352,-0.352,-0.352]},{"header":{"parameterUnit":"m.s-1","parameterCategory":1,"la1":30.2991,"la2":30.254,"lo1":-89.0895,"lo2":-89.0444,"dy":0.0017,"dx":0.0017,"nx":28,"ny":28,"refTime":"2023-08-03T03:00:00:Z","depth":0,"parameterNumber":3,"parameterNumberName":"V-component_of_WINDS"},"data":[0,0,0,0,0,0,0,0,0,0,0,0,0,0,0,0,0,0,0,0,0,0,0,0,0,0,0,0,0,0,0,0,0,0,0,0,0,0,0,0,0,0,0,0,0,0,0,0,0,0,0,0,0,0,0,0,0,0,3.6524,3.6524,0,3.6491,3.6491,3.649,3.6519,3.652,3.6521,3.6522,3.6482,3.648,3.6478,0,0,0,0,0,0,0,0,0,0,0,0,0,3.6605,3.6604,3.6524,3.6524,3.6523,3.6491,3.6491,3.649,3.6519,3.652,3.6521,3.6523,3.6483,3.648,3.6477,0,0,0,0,0,0,0,0,0,0,0,0,0,3.6571,3.6603,3.6524,3.6534,3.6534,3.6491,3.6491,3.649,3.6518,3.652,3.6522,3.6523,3.6484,3.648,3.6477,3.6421,0,0,3.6467,3.6466,0,0,0,0,0,0,0,0,3.6573,3.6568,3.6533,3.6533,3.6533,3.6511,3.6505,3.6467,3.6518,3.6524,3.6522,3.6524,3.649,3.6486,3.6476,3.6419,3.6417,3.6467,3.6465,3.6463,3.6462,0,0,0,0,0,0,0,3.6575,3.6569,3.6511,3.6532,3.6532,3.6538,3.6535,3.6498,3.6497,3.6524,3.6526,3.6522,3.649,3.6479,3.6475,3.6417,3.6467,3.6464,3.6462,3.6461,3.6313,3.6311,0,0,0,0,0,0,3.6577,3.6571,3.6512,3.651,3.6558,3.6535,3.6531,3.6516,3.6498,3.6497,3.652,3.6523,3.6484,3.6479,3.6474,3.6407,3.6463,3.646,3.6458,3.6315,3.6312,3.631,0,0,0,0,0,0,3.6579,3.6572,3.6513,3.6541,3.6534,3.6531,3.6514,3.6515,3.6503,3.6495,3.6494,3.6509,3.6485,3.6478,3.6434,3.6406,3.6459,3.6456,3.6317,3.6314,3.6311,3.6273,0,0,0,0,0,0,3.6581,3.6572,3.6552,3.6541,3.6532,3.6476,3.6512,3.6513,3.6498,3.6502,3.6484,3.6483,3.6486,3.6439,3.6431,3.6402,3.6453,3.6319,3.6316,3.6312,3.6277,3.6269,3.6262,0,0,0,0,0,3.6584,3.6541,3.6551,3.6544,3.6508,3.6474,3.6469,3.6475,3.6496,3.6475,3.647,3.6484,3.6411,3.6434,3.6426,3.6395,3.6321,3.6317,3.6312,3.628,3.6271,3.6263,0,0,0,0,0,0,3.6547,3.654,3.6551,3.6503,3.6489,3.6479,3.6453,3.6465,3.6443,3.6447,3.6453,3.6449,3.6403,3.6395,3.6422,3.634,3.6369,3.6363,3.6347,3.6338,3.6331,3.6334,3.6451,0,0,0,0,0,3.6534,3.6509,3.6504,3.6462,3.6455,3.6455,3.6441,3.6447,3.6432,3.6425,3.6417,3.64,3.6373,3.6355,3.633,3.6276,3.6272,3.6251,3.6244,3.6238,3.6232,3.6202,3.6193,3.6296,3.6296,3.6296,0,0,3.6505,3.6498,3.6482,3.6454,3.6445,3.6417,3.645,3.6419,3.6399,3.642,3.6379,3.6372,3.6353,3.6304,3.6282,3.6296,3.6203,3.6232,3.6228,3.6225,3.6197,3.6187,3.6179,3.6293,3.6293,3.6294,0,0,3.6439,3.6432,3.6397,3.6387,3.6373,3.6373,3.6365,3.6353,3.635,3.6309,3.6325,3.6299,3.6253,3.624,3.6227,3.6157,3.6169,3.6149,3.6111,3.6082,3.6074,3.6067,3.6042,3.6033,3.6143,3.6143,3.6143,0,3.6405,3.6367,3.6377,3.6346,3.6333,3.6354,3.6317,3.6306,3.6283,3.6273,3.629,3.6233,3.6222,3.617,3.6153,3.6142,3.6132,3.615,3.6075,3.6068,3.6061,3.6037,3.6028,3.6141,3.6141,3.6141,3.6141,0,3.6325,3.6298,3.6271,3.6252,3.6236,3.6202,3.6205,3.6187,3.6195,3.6193,3.6151,3.6139,3.6112,3.61,3.6106,3.6049,3.6058,3.6075,3.6103,3.6049,3.6026,3.6017,3.6137,3.6138,3.6139,3.6139,0,0,3.6234,3.6221,3.6211,3.6203,3.6189,3.6167,3.6134,3.611,3.6095,3.6078,3.605,3.6011,3.6027,3.6012,3.6017,3.5992,3.5937,3.6011,3.6011,3.5998,3.5873,3.586,3.5849,3.5945,3.5944,3.5942,3.5874,0,3.6167,3.6112,3.6121,3.6067,3.6042,3.6062,3.6033,3.602,3.6018,3.5995,3.5991,3.5964,3.5987,3.5978,3.5954,3.5949,3.5912,3.5954,3.5917,3.5916,3.5921,3.5837,3.5824,3.576,3.5865,3.5864,3.5863,0,3.6082,3.6065,3.601,3.6001,3.599,3.5965,3.5944,3.5922,3.5908,3.5908,3.5892,3.5902,3.5867,3.5897,3.5849,3.5877,3.5863,3.5858,3.5855,3.5851,3.5885,3.583,3.574,3.573,3.5849,3.585,3.5851,0,3.6021,3.5984,3.5946,3.5938,3.5927,3.5908,3.5902,3.589,3.5875,3.5856,3.5846,3.5823,3.5809,3.579,3.5792,3.5814,3.5743,3.5773,3.574,3.574,3.5723,3.5724,3.5628,3.5715,3.5715,3.5716,3.5716,0,3.5945,3.591,3.5919,3.5895,3.5856,3.5866,3.5826,3.5822,3.5812,3.5786,3.5801,3.5777,3.5782,3.5757,3.5758,3.5718,3.5712,3.571,3.571,3.5708,3.5708,3.5698,3.5702,3.5713,3.5714,3.5714,3.5714,0,3.5869,3.5874,3.5834,3.5827,3.5825,3.5796,3.579,3.5767,3.5766,3.5734,3.5727,3.5726,3.5698,3.5699,3.5665,3.5666,3.5617,3.5622,3.5622,3.5623,3.559,3.5593,3.5483,3.5469,3.5566,3.5565,3.5564,0,3.5821,3.5795,3.5786,3.5771,3.5765,3.5741,3.5727,3.5735,3.5719,3.5702,3.568,3.5654,3.5634,3.5587,3.5582,3.5557,3.5562,3.5525,3.5558,3.5557,3.5561,3.5562,3.5559,3.5519,3.5517,3.5517,3.5516,0,3.5733,3.5737,3.5718,3.5699,3.5682,3.5667,3.5653,3.564,3.5646,3.5627,3.56,3.5584,3.5552,3.5526,3.5502,3.5493,3.5505,3.5506,3.5497,3.5494,3.5495,3.5493,3.5604,3.5508,3.5509,3.5509,3.551,3.551,3.5669,3.5647,3.5638,3.5616,3.5607,3.5594,3.5572,3.557,3.5549,3.5525,3.553,3.5499,3.5486,3.5456,3.5445,3.542,3.5433,3.5419,3.5416,3.5413,3.5409,3.55,3.5415,3.5416,3.5416,3.5416,3.5416,0,3.5582,3.5578,3.5558,3.5539,3.5521,3.5537,3.5522,3.5505,3.5479,3.5466,3.5447,3.5415,3.539,3.5383,3.5358,3.5339,3.5344,3.5332,3.5333,3.5331,3.5399,3.5409,3.5329,3.5329,3.5329,3.5329,3.5329,3.5329,3.5535,3.5499,3.5502,3.5461,3.5456,3.5428,3.5419,3.5406,3.5397,3.5362,3.5341,3.5338,3.5328,3.5302,3.5279,3.5278,3.5268,3.5254,3.5254,3.5318,3.5326,3.5335,3.5344,3.5252,3.5251,3.5188,3.5188,3.5187]}]]